This demonstration page uses our WeatherBlox Daily Observations layout. Learn more.

Left ArrowRight Arrow

Hourly Observations for November 30, 2022

Temp ( °F °C ) Dew Point ( °F °C ) Humidity (%) Winds ( mph kmh ) Pressure ( in mb ) Visibility ( mi km ) Precip ( " mm )
12:59 am 00:59 Mostly Cloudy 52 11.1 47 8.3 83 83 SE 8 13 30.17 1022 10 16 0.00 0.00
1:59 am 01:59 Partly Cloudy 52 11.1 49 9.4 89 89 SE 7 11 30.14 1021 10 16 0.00 0.00
2:59 am 02:59 Mostly Cloudy 54 12.2 51 10.6 90 90 SE 7 11 30.11 1020 10 16 0.00 0.00
3:59 am 03:59 Mostly Cloudy 55 12.8 52 11.1 89 89 SE 8 13 30.10 1019 10 16 0.00 0.00
4:59 am 04:59 Mostly Cloudy 57 13.9 54 12.2 89 89 SE 8 13 30.08 1019 10 16 0.00 0.00
5:59 am 05:59 Cloudy 58 14.4 55 12.8 90 90 SSE 8 13 30.09 1019 10 16 0.00 0.00
6:59 am 06:59 Cloudy 60 15.6 55 12.8 83 83 SSE 9 15 30.06 1018 10 16 0.00 0.00
7:59 am 07:59 Mostly Cloudy 61 16.1 56 13.3 83 83 S 10 17 30.04 1017 10 16 0.00 0.00
8:59 am 08:59 Cloudy 61 16.1 57 13.9 87 87 S 9 15 30.04 1017 10 16 0.00 0.00
9:23 am 09:23 Cloudy with Light Rain 60 15.6 58 14.4 93 93 SSW 9 15 30.06 1018 3 4 0.01 0.25
9:36 am 09:36 Cloudy with Rain 60 15.6 58 14.4 93 93 SSW 9 15 30.06 1018 2 2 0.06 1.52
9:53 am 09:53 Cloudy with Light Rain 59 15 59 15 100 100 S 8 13 30.05 1018 3 4 0.09 2.29
9:59 am 09:59 Cloudy with Light Rain 59 15 59 15 100 100 S 7 11 30.05 1018 3 4 0.10 2.54
10:49 am 10:49 Cloudy with Light Rain 60 15.6 59 15 96 96 SSW 6 9 30.02 1017 3 4 0.11 2.79
10:59 am 10:59 Cloudy with Light Rain 60 15.6 59 15 96 96 SSW 8 13 30.01 1016 3 4 0.12 3.05
11:52 am 11:52 Cloudy with Light Rain 60 15.6 60 15.6 100 100 S 10 17 29.95 1014 5 8 0.04 1.02
11:59 am 11:59 Cloudy with Light Rain 60 15.6 60 15.6 100 100 S 10 17 29.94 1014 5 8 0.04 1.02
12:48 pm 12:48 Cloudy 60 15.6 59 15 96 96 SSW 12 19 29.88 1012 10 16 0.05 1.27
12:59 pm 12:59 Mostly Cloudy 61 16.1 59 15 93 93 WSW 8 13 29.89 1012 10 16 0.05 1.27
1:59 pm 13:59 Mostly Cloudy 61 16.1 60 15.6 97 97 S 9 15 29.86 1011 10 16 0.00 0.00
2:59 pm 14:59 Cloudy 62 16.7 60 15.6 93 93 SSW 8 13 29.83 1010 10 16 0.00 0.00
3:17 pm 15:17 Cloudy 63 17.2 59 15 87 87 SW 12 19 29.84 1011 10 16 0.00 0.00
3:59 pm 15:59 Mostly Cloudy 63 17.2 58 14.4 84 84 SW 12 19 29.85 1011 10 16 0.00 0.00
4:59 pm 16:59 Mostly Cloudy 62 16.7 58 14.4 86 86 SW 14 22 29.87 1012 10 16 0.00 0.00
5:32 pm 17:32 Mostly Clear 61 16.1 57 13.9 87 87 SW 9 15 29.88 1012 10 16 0.00 0.00
5:59 pm 17:59 Mostly Clear 61 16.1 57 13.9 87 87 WSW 9 15 29.91 1013 10 16 0.00 0.00
6:59 pm 18:59 Mostly Cloudy 62 16.7 58 14.4 86 86 SW 12 19 29.94 1014 10 16 0.00 0.00
7:59 pm 19:59 Partly Cloudy 60 15.6 50 10 69 69 WNW 18 30 29.97 1015 10 16 0.00 0.00
8:59 pm 20:59 Mostly Clear 56 13.3 36 2.2 47 47 WNW 21 33 30.01 1016 10 16 0.00 0.00
9:59 pm 21:59 Mostly Clear 54 12.2 23 -5 30 30 WNW 18 30 30.05 1018 10 16 0.00 0.00
10:59 pm 22:59 Mostly Clear 52 11.1 27 -2.8 38 38 WNW 15 24 30.08 1019 10 16 0.00 0.00
11:59 pm 23:59 Clear 49 9.4 23 -5 36 36 NW 14 22 30.10 1019 10 16 0.00 0.00

Powered by AerisWeather